sat.trackr.live / text

‹ back to catalog

STARLINK-35591

NORAD 66984 · 2025-288AB

PAYLOAD ACTIVE UNKNOWN

§ Identity

Operator
Country
US
Launch date
2025-12-08
Launch site
AFETR
Launch vehicle
Mass (kg)
RCS (m²)

Purposes: comms

External: N2YO · Heavens-Above · Gunter

§ Orbital elements

Epoch: 2026-09-20T17:36:54.059328Z

Period
94.27 min
Inclination
43.0040°
Eccentricity
0.0001675
Mean motion
15.27597279 rev/d
Perigee alt
481.8 km
Apogee alt
484.1 km
Semi-major
6,861.1 km
B*
6.9031e-4
RAAN
2.2237°
Arg perigee
280.6570°
Mean anomaly
79.4094°
Rev number
4,511

§ Raw data

STARLINK-355911 66984U 25288AB  26263.73395902  .00018792  00000+0  69031-3 0  99932 66984  43.0040   2.2237 0001675 280.6570  79.4094 15.27597279 45117

JSON: /api/v1/satellites/66984 · /tle

For live sub-satellite position, see the globe view (requires WebGL).

§ Visibility from observer

Set your observer location to see the next 7 days of passes ≥ 10°. The values pass through the URL so the page stays shareable.

No JS? Fill the form by hand. The geolocation button needs JavaScript.